This demonstration page uses our WeatherBlox Daily Observations layout. Learn more.

Left ArrowRight Arrow

Hourly Observations for June 25, 2017

Temp ( °F °C ) Dew Point ( °F °C ) Humidity (%) Winds ( mph kmh ) Pressure ( in mb ) Visibility ( mi km ) Precip ( " mm )
12:06 am 00:06 Clear 59 15 50 10 72 72 W 6 9 30.12 1020 10 16 N/A
12:27 am 00:27 Clear 57 14 50 10 77 77 W 8 13 30.12 1020 10 16 N/A
12:47 am 00:47 Clear 57 14 48 9 72 72 WNW 8 13 30.12 1020 10 16 N/A
1:07 am 01:07 Clear 59 15 48 9 68 68 WNW 7 11 30.12 1020 10 16 N/A
1:27 am 01:27 Clear 57 14 48 9 72 72 W 7 11 30.12 1020 10 16 N/A
1:46 am 01:46 Clear 57 14 48 9 72 72 W 7 11 30.12 1020 10 16 N/A
2:07 am 02:07 Clear 55 13 50 10 82 82 W 5 7 30.12 1020 10 16 N/A
2:27 am 02:27 Clear 55 13 50 10 82 82 W 6 9 30.12 1020 10 16 N/A
2:47 am 02:47 Clear 55 13 48 9 77 77 WSW 5 7 30.12 1020 10 16 N/A
3:07 am 03:07 Clear 54 12 48 9 82 82 W 7 11 30.15 1021 10 16 N/A
3:27 am 03:27 Clear 55 13 48 9 77 77 WSW 5 7 30.12 1020 10 16 N/A
3:47 am 03:47 Clear 55 13 48 9 77 77 WSW 5 7 30.09 1019 10 16 N/A
4:07 am 04:07 Clear 54 12 48 9 82 82 WSW 5 7 30.12 1020 10 16 N/A
4:27 am 04:27 Clear 55 13 48 9 77 77 SW 3 6 30.09 1019 10 16 N/A
4:47 am 04:47 Clear 55 13 48 9 77 77 SW 5 7 30.09 1019 10 16 N/A
5:07 am 05:07 Partly Cloudy 55 13 48 9 77 77 SW 6 9 30.09 1019 10 16 N/A
5:27 am 05:27 Partly Cloudy 55 13 48 9 77 77 SW 5 7 30.09 1019 10 16 N/A
5:47 am 05:47 Partly Cloudy 55 13 48 9 77 77 SW 6 9 30.09 1019 10 16 N/A
6:07 am 06:07 Partly Cloudy 57 14 48 9 72 72 SW 7 11 30.12 1020 10 16 N/A
6:27 am 06:27 Sunny 57 14 48 9 72 72 SW 8 13 30.12 1020 10 16 N/A
6:47 am 06:47 Sunny 57 14 48 9 72 72 SW 8 13 30.12 1020 10 16 N/A
7:07 am 07:07 Sunny 57 14 48 9 72 72 WSW 8 13 30.12 1020 10 16 N/A
7:27 am 07:27 Sunny 59 15 48 9 68 68 WSW 9 15 30.12 1020 10 16 N/A
7:46 am 07:46 Sunny 61 16 48 9 63 63 WSW 10 17 30.12 1020 10 16 N/A
8:07 am 08:07 Sunny 61 16 48 9 63 63 W 9 15 30.15 1021 10 16 N/A
8:27 am 08:27 Sunny 63 17 48 9 59 59 WSW 12 19 30.15 1021 10 16 N/A
8:47 am 08:47 Sunny 63 17 48 9 59 59 W 10 17 30.15 1021 10 16 N/A
9:07 am 09:07 Sunny 64 18 48 9 56 56 W 15 24 30.15 1021 10 16 N/A
9:26 am 09:26 Sunny 64 18 50 10 60 60 W 12 19 30.15 1021 10 16 N/A
9:47 am 09:47 Sunny 66 19 50 10 56 56 W 9 15 30.15 1021 10 16 N/A
10:07 am 10:07 Sunny 66 19 50 10 56 56 WNW 12 19 30.15 1021 10 16 N/A
10:27 am 10:27 Sunny 66 19 50 10 56 56 W 10 17 30.15 1021 10 16 N/A
10:46 am 10:46 Sunny 68 20 50 10 53 53 W 9 15 30.15 1021 10 16 N/A
11:07 am 11:07 Sunny 68 20 50 10 53 53 WNW 7 11 30.15 1021 10 16 N/A
11:27 am 11:27 Sunny 68 20 50 10 53 53 W 8 13 30.15 1021 10 16 N/A
11:47 am 11:47 Sunny 70 21 50 10 50 50 W 10 17 30.15 1021 10 16 N/A
12:07 pm 12:07 Sunny 70 21 48 9 46 46 WNW 15 24 30.15 1021 10 16 N/A
12:26 pm 12:26 Sunny 70 21 48 9 46 46 WNW 12 19 30.18 1022 10 16 N/A
12:47 pm 12:47 Sunny 72 22 48 9 44 44 WNW 15 24 30.15 1021 10 16 N/A
1:07 pm 13:07 Sunny 72 22 48 9 44 44 WNW 13 20 30.15 1021 10 16 N/A
1:27 pm 13:27 Sunny 72 22 48 9 44 44 W 16 26 30.15 1021 10 16 N/A
1:47 pm 13:47 Sunny 73 23 48 9 41 41 W 22 35 30.12 1020 10 16 N/A
2:07 pm 14:07 Sunny 73 23 46 8 38 38 WNW 16 26 30.12 1020 10 16 N/A
2:27 pm 14:27 Sunny 72 22 48 9 44 44 WNW 21 33 30.15 1021 10 16 N/A
2:47 pm 14:47 Sunny 73 23 46 8 38 38 WNW 16 26 30.12 1020 10 16 N/A
3:07 pm 15:07 Sunny 73 23 48 9 41 41 WNW 18 30 30.12 1020 10 16 N/A
3:27 pm 15:27 Partly Cloudy 73 23 46 8 38 38 WNW 20 31 30.12 1020 10 16 N/A
3:47 pm 15:47 Partly Cloudy 72 22 46 8 41 41 W 10 17 30.15 1021 10 16 N/A
4:07 pm 16:07 Mostly Cloudy 73 23 48 9 41 41 WNW 13 20 30.12 1020 10 16 N/A
4:27 pm 16:27 Mostly Cloudy 73 23 48 9 41 41 WNW 14 22 30.09 1019 10 16 N/A
4:47 pm 16:47 Partly Cloudy 73 23 48 9 41 41 W 13 20 30.09 1019 10 16 N/A
5:07 pm 17:07 Partly Cloudy 72 22 46 8 41 41 WNW 16 26 30.09 1019 10 16 N/A
5:26 pm 17:26 Partly Cloudy 73 23 48 9 41 41 W 12 19 30.09 1019 10 16 N/A
5:47 pm 17:47 Mostly Cloudy 72 22 48 9 44 44 WNW 13 20 30.09 1019 10 16 N/A
6:07 pm 18:07 Partly Cloudy 73 23 48 9 41 41 W 14 22 30.09 1019 10 16 N/A
6:27 pm 18:27 Mostly Cloudy 72 22 46 8 41 41 W 15 24 30.09 1019 10 16 N/A
6:47 pm 18:47 Mostly Cloudy 73 23 46 8 38 38 W 15 24 30.09 1019 10 16 N/A
7:07 pm 19:07 Partly Cloudy 73 23 48 9 41 41 W 15 24 30.06 1018 10 16 N/A
7:27 pm 19:27 Partly Cloudy 72 22 46 8 41 41 W 13 20 30.09 1019 10 16 N/A
7:47 pm 19:47 Partly Cloudy 70 21 46 8 43 43 W 9 15 30.12 1020 10 16 N/A
8:07 pm 20:07 Mostly Cloudy 70 21 46 8 43 43 WNW 12 19 30.12 1020 10 16 N/A
8:27 pm 20:27 Partly Cloudy 70 21 46 8 43 43 W 12 19 30.12 1020 10 16 N/A
8:47 pm 20:47 Partly Cloudy 70 21 46 8 43 43 WNW 14 22 30.12 1020 10 16 N/A
9:07 pm 21:07 Partly Cloudy 68 20 46 8 46 46 W 10 17 30.12 1020 10 16 N/A
9:27 pm 21:27 Clear 64 18 48 9 56 56 W 8 13 30.12 1020 10 16 N/A
9:47 pm 21:47 Clear 64 18 48 9 56 56 WNW 6 9 30.12 1020 10 16 N/A
10:07 pm 22:07 Clear 64 18 48 9 56 56 WNW 5 7 30.12 1020 10 16 N/A
10:27 pm 22:27 Clear 63 17 50 10 64 64 WNW 3 6 30.12 1020 10 16 N/A
10:46 pm 22:46 Clear 61 16 52 11 72 72 WNW 3 6 30.12 1020 10 16 N/A
11:07 pm 23:07 Clear 59 15 52 11 77 77 WNW 5 7 30.15 1021 10 16 N/A
11:26 pm 23:26 Clear 59 15 52 11 77 77 W 3 6 30.15 1021 10 16 N/A
11:47 pm 23:47 Clear 59 15 50 10 72 72 WSW 3 6 30.15 1021 10 16 N/A

Powered by AerisWeather